This demonstration page uses our WeatherBlox Daily Observations layout. Learn more.

Left ArrowRight Arrow

36.17497, -115.13722

Hourly Observations for July 22, 2021

Temp ( °F °C ) Dew Point ( °F °C ) Humidity (%) Winds ( mph kmh ) Pressure ( in mb ) Visibility ( mi km ) Precip ( " mm )
12:53 am 00:53 Clear 92 33.3 59 15 33 33 ESE 3 6 29.82 1010 10 16 0.00 0.00
1:53 am 01:53 Clear 91 32.8 59 15 34 34 E 5 7 29.81 1010 10 16 0.00 0.00
2:53 am 02:53 Clear 90 32.2 60 15.6 37 37 E 6 9 29.82 1010 10 16 0.00 0.00
3:53 am 03:53 Clear 89 31.7 62 16.7 41 41 E 6 9 29.83 1010 10 16 0.00 0.00
4:53 am 04:53 Clear 89 31.7 63 17.2 42 42 ESE 7 11 29.83 1010 10 16 0.00 0.00
5:53 am 05:53 Sunny 89 31.7 63 17.2 42 42 Calm 29.85 1011 10 16 0.00 0.00
6:53 am 06:53 Sunny 89 31.7 64 17.8 43 43 ENE 6 9 29.87 1012 10 16 0.00 0.00
7:53 am 07:53 Sunny 92 33.3 63 17.2 38 38 ESE 8 13 29.88 1012 10 16 0.00 0.00
8:53 am 08:53 Sunny 94 34.4 62 16.7 35 35 E 7 11 29.90 1013 10 16 0.00 0.00
9:53 am 09:53 Sunny 96 35.6 63 17.2 34 34 SE 9 15 29.90 1012 10 16 0.00 0.00
10:53 am 10:53 Sunny 99 37.2 62 16.7 30 30 ESE 10 17 29.90 1013 10 16 0.00 0.00
11:53 am 11:53 Sunny 103 39.4 62 16.7 26 26 E 17 28 29.88 1012 10 16 0.00 0.00
12:53 pm 12:53 Sunny 104 40 63 17.2 26 26 SE 13 20 29.85 1011 10 16 0.00 0.00
1:03 pm 13:03 Partly Cloudy with Thunderstorms 105 40.6 62 16.7 25 25 ESE 17 28 29.67 1005 10 16 0.00 0.00
1:35 pm 13:35 Mostly Cloudy with Thunderstorms 94 34.4 64 17.8 37 37 W 32 52 29.74 1007 10 16 0.00 0.00
1:53 pm 13:53 Windy with Storms Likely 88 31.1 68 20 52 52 WNW 21 33 29.88 1012 10 16 0.00 0.00
2:04 pm 14:04 Partly Cloudy with Nearby Thunderstorms 91 32.8 64 17.8 41 41 NW 17 28 29.76 1008 10 16 0.00 0.00
2:38 pm 14:38 Sunny 90 32.2 64 17.8 42 42 NNW 9 15 29.76 1008 10 16 0.00 0.00
2:53 pm 14:53 Sunny 92 33.3 63 17.2 38 38 SE 13 20 29.91 1013 10 16 0.00 0.00
3:53 pm 15:53 Sunny 94 34.4 63 17.2 36 36 S 9 15 29.86 1011 10 16 0.00 0.00
4:53 pm 16:53 Sunny 94 34.4 64 17.8 37 37 NW 10 17 29.86 1011 10 16 0.00 0.00
5:53 pm 17:53 Sunny 96 35.6 62 16.7 32 32 E 9 15 29.85 1011 10 16 0.00 0.00
6:53 pm 18:53 Sunny 96 35.6 62 16.7 32 32 E 7 11 29.85 1011 10 16 0.00 0.00
7:53 pm 19:53 Mostly Sunny 96 35.6 61 16.1 31 31 ESE 7 11 29.87 1012 10 16 0.00 0.00
8:53 pm 20:53 Clear 93 33.9 63 17.2 37 37 ENE 9 15 29.89 1012 10 16 0.00 0.00
9:53 pm 21:53 Clear 92 33.3 62 16.7 37 37 S 6 9 29.90 1013 10 16 0.00 0.00
10:53 pm 22:53 Clear 90 32.2 63 17.2 41 41 SE 6 9 29.90 1013 10 16 0.00 0.00
11:53 pm 23:53 Clear 89 31.7 63 17.2 42 42 S 3 6 29.90 1013 10 16 0.00 0.00

Powered by AerisWeather